Time,TemperatureF,DewpointF,PressureIn,WindDirection,WindDirectionDegrees,WindSpeedMPH,WindSpeedGustMPH,Humidity,HourlyPrecipIn,Conditions,Clouds,dailyrainin,SoftwareType,DateUTC
2013-07-01 00:01:00,70.0,69.4,29.91,East,94,0.0,0.0,98,0.00,,OVC160,0.05,VWS V14.01,2013-07-01 04:01:00,
2013-07-01 00:02:00,69.8,69.2,29.92,East,94,0.0,0.0,98,0.00,,OVC160,0.00,VWS V14.01,2013-07-01 04:02:00,
2013-07-01 00:07:00,69.8,69.2,29.92,East,94,0.0,0.0,98,0.00,,OVC160,0.00,VWS V14.01,2013-07-01 04:07:00,
2013-07-01 00:12:00,69.8,69.2,29.91,East,94,0.0,0.0,98,0.00,,OVC160,0.00,VWS V14.01,2013-07-01 04:12:00,
2013-07-01 00:17:00,69.8,69.2,29.92,East,94,0.0,0.0,98,0.00,,OVC160,0.00,VWS V14.01,2013-07-01 04:17:00,
2013-07-01 00:22:00,69.8,69.2,29.92,East,94,0.0,0.0,98,0.00,,OVC160,0.00,VWS V14.01,2013-07-01 04:22:00,
2013-07-01 00:27:00,69.8,69.2,29.92,South,181,0.0,0.0,98,0.00,,OVC160,0.00,VWS V14.01,2013-07-01 04:27:00,
2013-07-01 00:32:00,69.7,69.1,29.91,South,182,0.0,0.0,98,0.00,,BKN090,0.00,VWS V14.01,2013-07-01 04:32:00,
2013-07-01 00:37:00,69.7,69.1,29.92,South,182,0.0,0.0,98,0.00,,BKN090,0.00,VWS V14.01,2013-07-01 04:37:00,
2013-07-01 00:42:00,69.7,69.1,29.92,South,182,0.0,0.0,98,0.00,,BKN090,0.00,VWS V14.01,2013-07-01 04:42:00,
2013-07-01 00:47:00,69.8,69.2,29.92,South,182,0.0,0.0,98,0.00,,BKN090,0.00,VWS V14.01,2013-07-01 04:47:00,
2013-07-01 00:52:00,69.8,69.2,29.91,South,182,0.0,0.0,98,0.00,,BKN090,0.00,VWS V14.01,2013-07-01 04:52:00,
2013-07-01 00:57:00,69.8,69.2,29.92,South,182,0.0,0.0,98,0.00,,BKN090,0.00,VWS V14.01,2013-07-01 04:57:00,
2013-07-01 01:02:00,69.8,69.2,29.92,South,182,0.0,0.0,98,0.00,,OVC022,0.00,VWS V14.01,2013-07-01 05:02:00,
2013-07-01 01:07:00,69.8,69.2,29.92,South,182,0.0,0.0,98,0.00,,OVC022,0.00,VWS V14.01,2013-07-01 05:07:00,
2013-07-01 01:12:00,69.8,69.2,29.92,South,182,0.0,0.0,98,0.00,,OVC022,0.00,VWS V14.01,2013-07-01 05:12:00,
2013-07-01 01:17:00,69.8,69.2,29.92,South,182,0.0,0.0,98,0.00,,OVC022,0.00,VWS V14.01,2013-07-01 05:17:00,
2013-07-01 01:22:00,69.8,69.2,29.92,South,182,0.0,0.0,98,0.00,,OVC022,0.00,VWS V14.01,2013-07-01 05:22:00,
2013-07-01 01:27:00,69.8,69.2,29.92,South,182,0.0,0.0,98,0.00,,OVC022,0.00,VWS V14.01,2013-07-01 05:27:00,
2013-07-01 01:32:00,69.8,69.2,29.93,South,182,0.0,0.0,98,0.00,,OVC022,0.00,VWS V14.01,2013-07-01 05:32:00,
2013-07-01 01:37:00,69.8,69.2,29.93,South,182,0.0,0.0,98,0.00,,OVC022,0.00,VWS V14.01,2013-07-01 05:37:00,
2013-07-01 01:42:00,69.8,69.2,29.92,South,182,0.0,0.0,98,0.00,,OVC022,0.00,VWS V14.01,2013-07-01 05:42:00,
2013-07-01 01:47:00,69.8,69.2,29.92,South,182,0.0,0.0,98,0.00,,OVC022,0.00,VWS V14.01,2013-07-01 05:47:00,
2013-07-01 01:52:00,69.8,69.2,29.92,South,182,0.0,0.0,98,0.00,,OVC022,0.00,VWS V14.01,2013-07-01 05:52:00,
2013-07-01 01:57:00,69.8,69.2,29.92,South,182,0.0,0.0,98,0.00,,OVC022,0.00,VWS V14.01,2013-07-01 05:57:00,
2013-07-01 02:02:00,69.8,69.2,29.92,North,0,0.0,0.0,98,0.00,,OVC022,0.00,VWS V14.01,2013-07-01 06:02:00,
2013-07-01 02:08:00,69.8,69.2,29.92,South,182,0.0,0.0,98,0.00,,OVC022,0.00,VWS V14.01,2013-07-01 06:08:00,
2013-07-01 02:12:00,69.8,69.2,29.92,South,182,0.0,0.0,98,0.00,,OVC022,0.00,VWS V14.01,2013-07-01 06:12:00,
2013-07-01 02:18:00,69.7,69.1,29.92,South,182,0.0,0.0,98,0.00,,OVC022,0.00,VWS V14.01,2013-07-01 06:18:00,
2013-07-01 02:22:00,69.7,69.1,29.92,South,182,0.0,0.0,98,0.00,,OVC022,0.00,VWS V14.01,2013-07-01 06:22:00,
2013-07-01 02:28:00,69.7,69.1,29.92,South,182,0.0,0.0,98,0.00,,OVC022,0.00,VWS V14.01,2013-07-01 06:28:00,
2013-07-01 02:33:00,69.7,69.1,29.92,South,182,0.0,0.0,98,0.00,,OVC015,0.00,VWS V14.01,2013-07-01 06:33:00,
2013-07-01 02:38:00,69.7,69.1,29.92,South,182,0.0,0.0,98,0.00,,OVC015,0.00,VWS V14.01,2013-07-01 06:38:00,
2013-07-01 02:43:00,69.7,69.4,29.91,South,182,0.0,0.0,99,0.00,,OVC015,0.00,VWS V14.01,2013-07-01 06:43:00,
2013-07-01 02:48:00,69.7,69.4,29.91,South,182,0.0,0.0,99,0.00,,OVC015,0.00,VWS V14.01,2013-07-01 06:48:00,
2013-07-01 02:53:00,69.7,69.4,29.91,South,182,0.0,0.0,99,0.00,,OVC015,0.00,VWS V14.01,2013-07-01 06:53:00,
2013-07-01 02:58:00,69.7,69.4,29.91,South,182,0.0,0.0,99,0.00,,OVC015,0.00,VWS V14.01,2013-07-01 06:58:00,
2013-07-01 03:03:00,69.7,69.1,29.91,South,182,0.0,0.0,98,0.00,,OVC120,0.00,VWS V14.01,2013-07-01 07:03:00,
2013-07-01 03:08:00,69.7,69.1,29.91,South,182,0.0,0.0,98,0.00,,OVC120,0.00,VWS V14.01,2013-07-01 07:08:00,
2013-07-01 03:13:00,69.7,69.4,29.91,South,182,0.0,0.0,99,0.00,,OVC120,0.00,VWS V14.01,2013-07-01 07:13:00,
2013-07-01 03:18:00,69.7,69.4,29.91,South,182,0.0,0.0,99,0.00,,OVC120,0.00,VWS V14.01,2013-07-01 07:18:00,
2013-07-01 03:23:00,69.7,69.4,29.91,South,182,0.0,0.0,99,0.00,,OVC120,0.00,VWS V14.01,2013-07-01 07:23:00,
2013-07-01 03:28:00,69.7,69.4,29.91,South,182,0.0,0.0,99,0.00,,OVC120,0.00,VWS V14.01,2013-07-01 07:28:00,
2013-07-01 03:33:00,69.5,69.2,29.91,South,182,0.0,0.0,99,0.00,,OVC120,0.00,VWS V14.01,2013-07-01 07:33:00,
2013-07-01 03:38:00,69.5,69.2,29.91,South,182,0.0,0.0,99,0.00,,OVC120,0.00,VWS V14.01,2013-07-01 07:38:00,
2013-07-01 03:43:00,69.5,69.2,29.91,South,182,0.0,0.0,99,0.00,,OVC120,0.00,VWS V14.01,2013-07-01 07:43:00,
2013-07-01 03:48:00,69.5,69.2,29.91,South,182,0.0,0.0,99,0.00,,OVC120,0.00,VWS V14.01,2013-07-01 07:48:00,
2013-07-01 03:53:00,69.5,69.2,29.91,South,182,0.0,0.0,99,0.00,,OVC120,0.00,VWS V14.01,2013-07-01 07:53:00,
2013-07-01 03:58:00,69.5,69.2,29.91,South,182,0.0,0.0,99,0.00,,OVC120,0.00,VWS V14.01,2013-07-01 07:58:00,
2013-07-01 04:03:00,69.5,69.2,29.91,South,182,0.0,0.0,99,0.00,,OVC230,0.00,VWS V14.01,2013-07-01 08:03:00,
2013-07-01 04:08:00,69.5,69.2,29.91,South,182,0.0,0.0,99,0.00,,OVC230,0.00,VWS V14.01,2013-07-01 08:08:00,
2013-07-01 04:13:00,69.5,69.2,29.91,South,182,0.0,0.0,99,0.00,,OVC230,0.00,VWS V14.01,2013-07-01 08:13:00,
2013-07-01 04:18:00,69.7,69.4,29.91,South,182,0.0,0.0,99,0.00,,OVC230,0.00,VWS V14.01,2013-07-01 08:18:00,
2013-07-01 04:23:00,69.7,69.4,29.92,South,182,0.0,0.0,99,0.00,,OVC230,0.00,VWS V14.01,2013-07-01 08:23:00,
2013-07-01 04:28:00,69.7,69.4,29.92,South,182,0.0,0.0,99,0.00,,OVC230,0.00,VWS V14.01,2013-07-01 08:28:00,
2013-07-01 04:33:00,69.7,69.4,29.92,South,182,0.0,0.0,99,0.00,,OVC230,0.00,VWS V14.01,2013-07-01 08:33:00,
2013-07-01 04:38:00,69.7,69.4,29.92,South,182,0.0,0.0,99,0.00,,OVC230,0.00,VWS V14.01,2013-07-01 08:38:00,
2013-07-01 04:43:00,69.7,69.4,29.92,South,182,0.0,0.0,99,0.00,,OVC230,0.00,VWS V14.01,2013-07-01 08:43:00,
2013-07-01 04:48:00,69.7,69.4,29.92,South,182,0.0,0.0,99,0.00,,OVC230,0.00,VWS V14.01,2013-07-01 08:48:00,
2013-07-01 04:53:00,69.7,69.4,29.92,South,182,0.0,0.0,99,0.00,,OVC230,0.00,VWS V14.01,2013-07-01 08:53:00,
2013-07-01 04:58:00,69.7,69.4,29.92,South,182,0.0,0.0,99,0.00,,OVC230,0.00,VWS V14.01,2013-07-01 08:58:00,
2013-07-01 05:03:00,69.7,69.4,29.92,South,182,0.0,0.0,99,0.00,,OVC100,0.00,VWS V14.01,2013-07-01 09:03:00,
2013-07-01 05:08:00,69.7,69.4,29.92,South,182,0.0,0.0,99,0.00,,OVC100,0.00,VWS V14.01,2013-07-01 09:08:00,
2013-07-01 05:13:00,69.7,69.4,29.92,South,182,0.0,0.0,99,0.00,,OVC100,0.00,VWS V14.01,2013-07-01 09:13:00,
2013-07-01 05:18:00,69.7,69.4,29.93,South,182,0.0,0.0,99,0.00,,OVC100,0.00,VWS V14.01,2013-07-01 09:18:00,
2013-07-01 05:23:00,69.7,69.4,29.93,South,182,0.0,0.0,99,0.00,,OVC100,0.00,VWS V14.01,2013-07-01 09:23:00,
2013-07-01 05:28:00,69.7,69.4,29.93,South,182,0.0,0.0,99,0.00,,OVC100,0.00,VWS V14.01,2013-07-01 09:28:00,
2013-07-01 05:33:00,69.8,69.5,29.93,South,182,0.0,0.0,99,0.00,,OVC100,0.00,VWS V14.01,2013-07-01 09:33:00,
2013-07-01 05:38:00,69.8,69.5,29.94,South,182,0.0,0.0,99,0.00,,OVC100,0.00,VWS V14.01,2013-07-01 09:38:00,
2013-07-01 05:43:00,69.7,69.4,29.93,South,182,0.0,0.0,99,0.00,,OVC100,0.00,VWS V14.01,2013-07-01 09:43:00,
2013-07-01 05:48:00,69.7,69.4,29.94,South,182,0.0,0.0,99,0.00,,OVC100,0.00,VWS V14.01,2013-07-01 09:48:00,
2013-07-01 05:53:00,69.7,69.4,29.94,South,182,0.0,0.0,99,0.00,,OVC100,0.00,VWS V14.01,2013-07-01 09:53:00,
2013-07-01 05:58:00,69.7,69.4,29.94,South,182,0.0,0.0,99,0.00,,OVC100,0.00,VWS V14.01,2013-07-01 09:58:00,
2013-07-01 06:03:00,69.7,69.4,29.94,South,182,0.0,0.0,99,0.00,,OVC015,0.00,VWS V14.01,2013-07-01 10:03:00,
2013-07-01 06:08:00,69.7,69.4,29.94,South,182,0.0,0.0,99,0.00,,OVC015,0.00,VWS V14.01,2013-07-01 10:08:00,
2013-07-01 06:13:00,69.7,69.4,29.94,South,182,0.0,0.0,99,0.00,,OVC015,0.00,VWS V14.01,2013-07-01 10:13:00,
2013-07-01 06:18:00,69.7,69.4,29.94,SE,130,0.0,0.0,99,0.00,,OVC015,0.00,VWS V14.01,2013-07-01 10:18:00,
2013-07-01 06:23:00,69.7,69.4,29.94,SE,130,0.0,0.0,99,0.01,,OVC015,0.01,VWS V14.01,2013-07-01 10:23:00,
2013-07-01 06:28:00,69.7,69.4,29.94,NNW,333,0.0,0.0,99,0.01,,OVC015,0.01,VWS V14.01,2013-07-01 10:28:00,
2013-07-01 06:33:00,69.7,69.4,29.94,NNW,333,0.0,0.0,99,0.01,,,0.01,VWS V14.01,2013-07-01 10:33:00,
2013-07-01 06:38:00,69.7,69.4,29.94,NNW,333,0.0,0.0,99,0.01,,,0.01,VWS V14.01,2013-07-01 10:38:00,
2013-07-01 06:43:00,69.7,69.4,29.94,NNW,333,0.0,0.0,99,0.01,,,0.01,VWS V14.01,2013-07-01 10:43:00,
2013-07-01 06:48:00,69.7,69.4,29.95,NNW,333,0.0,0.0,99,0.01,,,0.01,VWS V14.01,2013-07-01 10:48:00,
2013-07-01 06:53:00,69.7,69.4,29.94,NNW,333,0.0,0.0,99,0.02,,,0.02,VWS V14.01,2013-07-01 10:53:00,
2013-07-01 06:58:00,69.7,69.4,29.94,NNW,333,0.0,0.0,99,0.02,,,0.02,VWS V14.01,2013-07-01 10:58:00,
2013-07-01 07:03:00,69.7,69.4,29.94,NNW,333,0.0,0.0,99,0.02,,OVC100,0.02,VWS V14.01,2013-07-01 11:03:00,
2013-07-01 07:08:00,69.7,69.4,29.95,NNW,333,0.0,0.0,99,0.02,,OVC100,0.02,VWS V14.01,2013-07-01 11:08:00,
2013-07-01 07:13:00,69.8,69.5,29.94,NNW,333,0.0,0.0,99,0.02,,OVC100,0.02,VWS V14.01,2013-07-01 11:13:00,
2013-07-01 07:18:00,69.8,69.5,29.94,NNW,333,0.0,0.0,99,0.02,,OVC100,0.02,VWS V14.01,2013-07-01 11:18:00,
2013-07-01 07:23:00,69.8,69.5,29.94,NNW,333,0.0,0.0,99,0.01,,OVC100,0.02,VWS V14.01,2013-07-01 11:23:00,
2013-07-01 07:28:00,69.8,69.5,29.95,NNW,333,0.0,0.0,99,0.01,,OVC100,0.02,VWS V14.01,2013-07-01 11:28:00,
2013-07-01 07:33:00,70.0,70.0,29.95,NNW,333,0.0,0.0,100,0.01,,,0.02,VWS V14.01,2013-07-01 11:33:00,
2013-07-01 07:38:00,70.0,70.0,29.95,NNW,333,0.0,0.0,100,0.01,,,0.02,VWS V14.01,2013-07-01 11:38:00,
2013-07-01 07:43:00,70.0,70.0,29.95,NNW,333,0.0,0.0,100,0.01,,,0.02,VWS V14.01,2013-07-01 11:43:00,
2013-07-01 07:48:00,70.2,70.2,29.95,NNW,333,0.0,0.0,100,0.01,,,0.02,VWS V14.01,2013-07-01 11:48:00,
2013-07-01 07:53:00,70.2,70.2,29.95,NNW,333,0.0,0.0,100,0.00,,,0.02,VWS V14.01,2013-07-01 11:53:00,
2013-07-01 07:58:00,70.3,70.3,29.95,NNW,333,0.0,0.0,100,0.00,,,0.02,VWS V14.01,2013-07-01 11:58:00,
2013-07-01 08:03:00,70.3,70.3,29.95,NNW,333,0.0,0.0,100,0.00,,,0.02,VWS V14.01,2013-07-01 12:03:00,
2013-07-01 08:08:00,70.5,70.5,29.95,NNW,333,0.0,0.0,100,0.00,,,0.02,VWS V14.01,2013-07-01 12:08:00,
2013-07-01 08:13:00,70.5,70.5,29.95,NNW,333,0.0,0.0,100,0.00,,,0.02,VWS V14.01,2013-07-01 12:13:00,
2013-07-01 08:18:00,70.5,70.5,29.96,NNW,333,0.0,0.0,100,0.00,,,0.02,VWS V14.01,2013-07-01 12:18:00,
2013-07-01 08:23:00,70.7,70.7,29.95,NNW,333,0.0,0.0,100,0.00,,,0.02,VWS V14.01,2013-07-01 12:23:00,
2013-07-01 08:28:00,70.7,70.7,29.95,NNW,333,0.0,0.0,100,0.00,,,0.02,VWS V14.01,2013-07-01 12:28:00,
2013-07-01 08:33:00,70.9,70.9,29.95,NNW,333,3.0,0.0,100,0.00,,,0.02,VWS V14.01,2013-07-01 12:33:00,
2013-07-01 08:38:00,70.9,70.9,29.96,NNW,333,0.0,0.0,100,0.00,,,0.02,VWS V14.01,2013-07-01 12:38:00,
2013-07-01 08:43:00,70.9,70.9,29.96,NNW,333,0.0,0.0,100,0.00,,,0.02,VWS V14.01,2013-07-01 12:43:00,
2013-07-01 08:48:00,70.9,70.9,29.95,NNW,333,0.0,0.0,100,0.00,,,0.02,VWS V14.01,2013-07-01 12:48:00,
2013-07-01 08:53:00,70.9,70.9,29.96,NNW,333,0.0,0.0,100,0.00,,,0.02,VWS V14.01,2013-07-01 12:53:00,
2013-07-01 08:58:00,70.9,70.9,29.96,NNW,333,10.0,0.0,100,0.00,,,0.02,VWS V14.01,2013-07-01 12:58:00,
2013-07-01 09:03:00,71.0,71.0,29.96,NNW,333,0.0,0.0,100,0.00,,OVC020,0.02,VWS V14.01,2013-07-01 13:03:00,
2013-07-01 09:08:00,71.0,71.0,29.96,NNW,333,0.0,0.0,100,0.00,,OVC020,0.02,VWS V14.01,2013-07-01 13:08:00,
2013-07-01 09:13:00,70.9,70.9,29.96,NNW,333,0.0,0.0,100,0.00,,OVC020,0.02,VWS V14.01,2013-07-01 13:13:00,
2013-07-01 09:18:00,71.0,71.0,29.96,NNW,333,2.0,0.0,100,0.00,,OVC020,0.02,VWS V14.01,2013-07-01 13:18:00,
2013-07-01 09:23:00,71.0,71.0,29.96,NNW,333,0.0,0.0,100,0.00,,OVC020,0.02,VWS V14.01,2013-07-01 13:23:00,
2013-07-01 09:28:00,71.2,71.2,29.96,NNW,333,0.0,0.0,100,0.00,,OVC020,0.02,VWS V14.01,2013-07-01 13:28:00,
2013-07-01 09:33:00,71.2,71.2,29.96,NNW,333,0.0,0.0,100,0.00,,OVC020,0.02,VWS V14.01,2013-07-01 13:33:00,
2013-07-01 09:38:00,71.2,71.2,29.97,NNW,333,0.0,0.0,100,0.00,,OVC020,0.02,VWS V14.01,2013-07-01 13:38:00,
2013-07-01 09:43:00,71.4,71.4,29.96,NNW,333,0.0,0.0,100,0.00,,OVC020,0.02,VWS V14.01,2013-07-01 13:43:00,
2013-07-01 09:48:00,71.5,71.5,29.97,NNW,333,1.0,0.0,100,0.00,,OVC020,0.02,VWS V14.01,2013-07-01 13:48:00,
2013-07-01 09:53:00,71.4,71.4,29.96,NNW,333,0.0,0.0,100,0.00,,OVC020,0.02,VWS V14.01,2013-07-01 13:53:00,
2013-07-01 09:58:00,71.5,71.5,29.97,NW,313,0.0,0.0,100,0.00,,OVC020,0.02,VWS V14.01,2013-07-01 13:58:00,
2013-07-01 10:03:00,71.7,71.7,29.96,NW,313,0.0,0.0,100,0.00,,OVC035,0.02,VWS V14.01,2013-07-01 14:03:00,
2013-07-01 10:08:00,71.7,71.4,29.96,NW,313,0.0,0.0,99,0.00,,OVC035,0.02,VWS V14.01,2013-07-01 14:08:00,
2013-07-01 10:13:00,71.9,71.6,29.96,NW,311,0.0,0.0,99,0.00,,OVC035,0.02,VWS V14.01,2013-07-01 14:13:00,
2013-07-01 10:18:00,71.9,71.6,29.96,NW,311,0.0,0.0,99,0.00,,OVC035,0.02,VWS V14.01,2013-07-01 14:18:00,
2013-07-01 10:23:00,72.2,71.9,29.96,NW,312,0.0,0.0,99,0.00,,OVC035,0.02,VWS V14.01,2013-07-01 14:23:00,
2013-07-01 10:28:00,72.6,72.3,29.96,South,185,0.0,0.0,99,0.00,,OVC035,0.02,VWS V14.01,2013-07-01 14:28:00,
2013-07-01 10:33:00,72.6,72.3,29.96,South,185,0.0,0.0,99,0.00,,OVC035,0.02,VWS V14.01,2013-07-01 14:33:00,
2013-07-01 10:38:00,72.4,72.1,29.96,South,185,0.0,0.0,99,0.00,,OVC035,0.02,VWS V14.01,2013-07-01 14:38:00,
2013-07-01 10:43:00,72.2,71.9,29.97,South,185,0.0,0.0,99,0.00,,OVC035,0.02,VWS V14.01,2013-07-01 14:43:00,
2013-07-01 10:48:00,72.2,71.9,29.97,South,185,0.0,0.0,99,0.00,,OVC035,0.02,VWS V14.01,2013-07-01 14:48:00,
2013-07-01 10:53:00,72.1,71.8,29.97,South,185,9.0,0.0,99,0.00,,OVC035,0.02,VWS V14.01,2013-07-01 14:53:00,
2013-07-01 10:58:00,72.1,71.5,29.97,South,185,0.0,0.0,98,0.00,,OVC035,0.02,VWS V14.01,2013-07-01 14:58:00,
2013-07-01 11:03:00,72.1,71.5,29.97,South,185,2.0,0.0,98,0.00,,OVC034,0.02,VWS V14.01,2013-07-01 15:03:00,
2013-07-01 11:08:00,72.1,71.5,29.97,South,185,4.0,0.0,98,0.00,,OVC034,0.02,VWS V14.01,2013-07-01 15:08:00,
2013-07-01 11:13:00,72.2,71.6,29.97,South,189,1.0,0.0,98,0.00,,OVC034,0.02,VWS V14.01,2013-07-01 15:13:00,
2013-07-01 11:18:00,72.2,71.6,29.97,South,189,2.0,0.0,98,0.00,,OVC034,0.02,VWS V14.01,2013-07-01 15:18:00,
2013-07-01 11:23:00,72.2,71.6,29.97,South,189,1.0,0.0,98,0.01,,OVC034,0.03,VWS V14.01,2013-07-01 15:23:00,
2013-07-01 11:28:00,72.1,71.5,29.97,South,189,0.0,0.0,98,0.02,,OVC034,0.04,VWS V14.01,2013-07-01 15:28:00,
2013-07-01 11:33:00,72.1,71.5,29.98,South,189,0.0,0.0,98,0.03,,OVC034,0.05,VWS V14.01,2013-07-01 15:33:00,
2013-07-01 11:38:00,72.1,71.5,29.98,South,189,0.0,0.0,98,0.05,,OVC034,0.07,VWS V14.01,2013-07-01 15:38:00,
2013-07-01 11:43:00,72.1,71.5,29.98,South,189,0.0,0.0,98,0.06,,OVC034,0.08,VWS V14.01,2013-07-01 15:43:00,
2013-07-01 11:48:00,72.1,71.5,29.98,SSW,192,0.0,0.0,98,0.08,,OVC034,0.10,VWS V14.01,2013-07-01 15:48:00,
2013-07-01 11:53:00,72.1,71.5,29.98,SSW,192,0.0,0.0,98,0.08,,OVC034,0.10,VWS V14.01,2013-07-01 15:53:00,
2013-07-01 11:58:00,72.1,71.5,29.97,SSW,192,0.0,0.0,98,0.09,,OVC034,0.11,VWS V14.01,2013-07-01 15:58:00,
2013-07-01 12:03:00,72.1,71.5,29.97,SSW,192,0.0,0.0,98,0.10,,OVC034,0.12,VWS V14.01,2013-07-01 16:03:00,
2013-07-01 12:08:00,72.1,71.5,29.96,SSW,192,0.0,0.0,98,0.11,,OVC034,0.13,VWS V14.01,2013-07-01 16:08:00,
2013-07-01 12:13:00,71.9,71.3,29.96,SSW,192,0.0,0.0,98,0.12,,OVC034,0.14,VWS V14.01,2013-07-01 16:13:00,
2013-07-01 12:18:00,72.1,71.5,29.96,SSW,192,0.0,0.0,98,0.14,,OVC034,0.16,VWS V14.01,2013-07-01 16:18:00,
2013-07-01 12:23:00,72.1,71.5,29.96,SSW,192,0.0,0.0,98,0.18,,OVC034,0.20,VWS V14.01,2013-07-01 16:23:00,
2013-07-01 12:28:00,72.1,71.5,29.96,SSW,192,0.0,0.0,98,0.28,,OVC034,0.32,VWS V14.01,2013-07-01 16:28:00,
2013-07-01 12:33:00,71.9,71.3,29.95,SSW,192,2.0,0.0,98,0.39,,,0.43,VWS V14.01,2013-07-01 16:33:00,
2013-07-01 12:38:00,71.5,70.9,29.95,SSW,192,4.0,0.0,98,0.39,,,0.45,VWS V14.01,2013-07-01 16:38:00,
2013-07-01 12:44:00,71.5,71.2,29.96,SSW,192,0.0,0.0,99,0.38,,,0.46,VWS V14.01,2013-07-01 16:44:00,
2013-07-01 12:49:00,71.4,71.1,29.95,SSW,192,0.0,0.0,99,0.37,,,0.47,VWS V14.01,2013-07-01 16:49:00,
2013-07-01 12:54:00,71.5,71.2,29.96,SSW,192,4.0,0.0,99,0.38,,,0.48,VWS V14.01,2013-07-01 16:54:00,
2013-07-01 12:59:00,71.7,71.4,29.96,SSW,192,7.0,0.0,99,0.36,,,0.48,VWS V14.01,2013-07-01 16:59:00,
2013-07-01 13:05:00,71.9,71.6,29.96,SSW,192,1.0,0.0,99,0.35,,RA,0.48,VWS V14.01,2013-07-01 17:05:00,
2013-07-01 13:10:00,72.1,71.8,29.96,SSW,192,4.0,0.0,99,0.34,,RA,0.48,VWS V14.01,2013-07-01 17:10:00,
2013-07-01 13:15:00,71.9,71.6,29.96,SSW,194,6.0,0.0,99,0.35,,RA,0.49,VWS V14.01,2013-07-01 17:15:00,
2013-07-01 13:20:00,71.9,71.6,29.97,SSW,200,9.0,0.0,99,0.32,,RA,0.49,VWS V14.01,2013-07-01 17:20:00,
2013-07-01 13:25:00,71.9,71.6,29.97,SSW,199,4.0,0.0,99,0.27,,RA,0.49,VWS V14.01,2013-07-01 17:25:00,
2013-07-01 13:30:00,71.9,71.6,29.97,SSW,211,4.0,0.0,99,0.14,, +RA,0.50,VWS V14.01,2013-07-01 17:30:00,
2013-07-01 13:36:00,71.7,71.1,29.97,ESE,120,1.0,0.0,98,0.06,, +RA,0.50,VWS V14.01,2013-07-01 17:36:00,
2013-07-01 13:41:00,71.7,71.1,29.96,WSW,252,2.0,0.0,98,0.04,, +RA,0.50,VWS V14.01,2013-07-01 17:41:00,
2013-07-01 13:47:00,71.7,71.1,29.96,WSW,252,3.0,0.0,98,0.03,, +RA,0.50,VWS V14.01,2013-07-01 17:47:00,
2013-07-01 13:52:00,71.7,71.1,29.96,WSW,252,5.0,0.0,98,0.03,, +RA,0.50,VWS V14.01,2013-07-01 17:52:00,
2013-07-01 13:58:00,71.9,71.3,29.96,WSW,252,0.0,0.0,98,0.02,, +RA,0.50,VWS V14.01,2013-07-01 17:58:00,
2013-07-01 14:03:00,71.9,71.3,29.97,WSW,251,0.0,0.0,98,0.02,,RA,0.50,VWS V14.01,2013-07-01 18:03:00,
2013-07-01 14:09:00,71.9,71.3,29.97,WSW,251,0.0,0.0,98,0.03,,RA,0.51,VWS V14.01,2013-07-01 18:09:00,
2013-07-01 14:14:00,71.9,71.3,29.97,WSW,251,0.0,0.0,98,0.02,,RA,0.51,VWS V14.01,2013-07-01 18:14:00,
2013-07-01 14:19:00,71.9,71.3,29.97,WSW,252,0.0,0.0,98,0.02,,RA,0.51,VWS V14.01,2013-07-01 18:19:00,
2013-07-01 14:24:00,71.9,71.3,29.98,WSW,251,0.0,0.0,98,0.02,,RA,0.51,VWS V14.01,2013-07-01 18:24:00,
2013-07-01 14:30:00,71.9,71.3,29.98,WSW,252,2.0,0.0,98,0.01,,-RA,0.51,VWS V14.01,2013-07-01 18:30:00,
2013-07-01 14:35:00,71.9,71.3,29.98,WSW,252,0.0,0.0,98,0.01,,-RA,0.51,VWS V14.01,2013-07-01 18:35:00,
2013-07-01 14:40:00,71.9,71.3,29.98,WSW,252,6.0,0.0,98,0.01,,-RA,0.51,VWS V14.01,2013-07-01 18:40:00,
2013-07-01 14:45:00,71.9,71.3,29.98,WSW,252,0.0,0.0,98,0.02,,-RA,0.52,VWS V14.01,2013-07-01 18:45:00,
2013-07-01 14:50:00,71.9,71.3,29.98,WSW,252,4.0,0.0,98,0.02,,-RA,0.52,VWS V14.01,2013-07-01 18:50:00,
2013-07-01 14:56:00,71.9,71.3,29.98,WSW,252,0.0,0.0,98,0.02,,-RA,0.52,VWS V14.01,2013-07-01 18:56:00,
2013-07-01 15:01:00,72.1,71.5,29.98,WSW,252,0.0,0.0,98,0.02,,-RA,0.52,VWS V14.01,2013-07-01 19:01:00,
2013-07-01 15:07:00,72.4,71.8,29.98,WSW,252,0.0,0.0,98,0.02,,-RA,0.52,VWS V14.01,2013-07-01 19:07:00,
2013-07-01 15:12:00,72.4,71.8,29.98,WSW,252,0.0,0.0,98,0.01,,-RA,0.52,VWS V14.01,2013-07-01 19:12:00,
2013-07-01 15:17:00,72.4,71.8,29.98,WSW,252,0.0,0.0,98,0.01,,-RA,0.52,VWS V14.01,2013-07-01 19:17:00,
2013-07-01 15:22:00,72.1,71.5,29.98,WSW,252,0.0,0.0,98,0.01,,-RA,0.52,VWS V14.01,2013-07-01 19:22:00,
2013-07-01 15:27:00,72.1,71.5,29.98,WSW,251,0.0,0.0,98,0.01,,-RA,0.52,VWS V14.01,2013-07-01 19:27:00,
2013-07-01 15:33:00,72.2,71.6,29.99,West,259,4.0,0.0,98,0.01,,-RA,0.52,VWS V14.01,2013-07-01 19:33:00,
2013-07-01 15:39:00,72.1,71.5,29.98,West,259,0.0,0.0,98,0.01,,-RA,0.52,VWS V14.01,2013-07-01 19:39:00,
2013-07-01 15:44:00,72.2,71.6,29.99,West,259,0.0,0.0,98,0.00,,-RA,0.52,VWS V14.01,2013-07-01 19:44:00,
2013-07-01 15:49:00,72.2,71.6,29.99,West,259,3.0,0.0,98,0.00,,-RA,0.52,VWS V14.01,2013-07-01 19:49:00,
2013-07-01 15:55:00,72.2,71.6,29.99,West,259,0.0,0.0,98,0.00,,-RA,0.52,VWS V14.01,2013-07-01 19:55:00,
2013-07-01 16:00:00,72.1,71.5,29.99,West,259,0.0,0.0,98,0.00,,OVC150,0.52,VWS V14.01,2013-07-01 20:00:00,
2013-07-01 16:05:00,72.1,71.2,29.99,West,259,0.0,0.0,97,0.00,,OVC150,0.52,VWS V14.01,2013-07-01 20:05:00,
2013-07-01 16:11:00,71.9,71.0,29.99,WSW,258,0.0,0.0,97,0.00,,OVC150,0.52,VWS V14.01,2013-07-01 20:11:00,
2013-07-01 16:17:00,71.9,71.0,29.99,WSW,258,3.0,0.0,97,0.00,,OVC150,0.52,VWS V14.01,2013-07-01 20:17:00,
2013-07-01 16:23:00,71.7,70.8,29.99,WSW,258,0.0,0.0,97,0.00,,OVC150,0.52,VWS V14.01,2013-07-01 20:23:00,
2013-07-01 16:28:00,71.7,70.8,29.99,WSW,258,2.0,0.0,97,0.00,,OVC150,0.52,VWS V14.01,2013-07-01 20:28:00,
2013-07-01 16:33:00,71.7,70.8,29.99,WSW,258,0.0,0.0,97,0.00,,OVC150,0.52,VWS V14.01,2013-07-01 20:33:00,
2013-07-01 16:38:00,71.7,70.8,29.99,WSW,258,2.0,0.0,97,0.00,,OVC150,0.52,VWS V14.01,2013-07-01 20:38:00,
2013-07-01 16:44:00,71.7,70.8,29.99,WSW,258,2.0,0.0,97,0.00,,OVC150,0.52,VWS V14.01,2013-07-01 20:44:00,
2013-07-01 16:49:00,71.7,70.8,29.99,WSW,258,2.0,0.0,97,0.00,,OVC150,0.52,VWS V14.01,2013-07-01 20:49:00,
2013-07-01 16:54:00,71.7,70.8,29.98,WSW,258,0.0,0.0,97,0.00,,OVC150,0.52,VWS V14.01,2013-07-01 20:54:00,
2013-07-01 17:00:00,71.7,70.8,29.98,WSW,258,0.0,0.0,97,0.00,,-RA,0.52,VWS V14.01,2013-07-01 21:00:00,
2013-07-01 17:05:00,71.7,70.8,29.98,WSW,258,0.0,0.0,97,0.00,,-RA,0.52,VWS V14.01,2013-07-01 21:05:00,
2013-07-01 17:10:00,71.7,70.8,29.98,WSW,258,3.0,0.0,97,0.00,,-RA,0.52,VWS V14.01,2013-07-01 21:10:00,
2013-07-01 17:15:00,71.7,70.8,29.98,WSW,258,0.0,0.0,97,0.00,,-RA,0.52,VWS V14.01,2013-07-01 21:15:00,
2013-07-01 17:20:00,71.7,70.8,29.98,WSW,258,3.0,0.0,97,0.00,,-RA,0.52,VWS V14.01,2013-07-01 21:20:00,
2013-07-01 17:26:00,71.7,70.8,29.98,South,187,7.0,0.0,97,0.00,,-RA,0.52,VWS V14.01,2013-07-01 21:26:00,
2013-07-01 17:31:00,71.5,70.6,29.98,South,187,5.0,0.0,97,0.00,,-RA,0.52,VWS V14.01,2013-07-01 21:31:00,
2013-07-01 17:36:00,71.5,70.6,29.98,South,188,2.0,0.0,97,0.00,,-RA,0.52,VWS V14.01,2013-07-01 21:36:00,
2013-07-01 17:42:00,71.5,70.6,29.98,South,188,2.0,0.0,97,0.00,,-RA,0.52,VWS V14.01,2013-07-01 21:42:00,
2013-07-01 17:48:00,71.4,70.5,29.99,SSW,202,5.0,0.0,97,0.00,,-RA,0.52,VWS V14.01,2013-07-01 21:48:00,
2013-07-01 17:53:00,71.4,70.5,29.99,SSW,211,0.0,0.0,97,0.00,,-RA,0.52,VWS V14.01,2013-07-01 21:53:00,
2013-07-01 17:59:00,71.4,70.5,29.99,SSW,211,0.0,0.0,97,0.00,,-RA,0.52,VWS V14.01,2013-07-01 21:59:00,
2013-07-01 18:05:00,71.4,70.5,29.99,SSW,210,8.0,0.0,97,0.00,,OVC027,0.52,VWS V14.01,2013-07-01 22:05:00,
2013-07-01 18:11:00,71.2,70.3,29.99,SSW,210,0.0,0.0,97,0.00,,OVC027,0.52,VWS V14.01,2013-07-01 22:11:00,
2013-07-01 18:16:00,71.4,70.5,29.99,SSW,210,7.0,0.0,97,0.00,,OVC027,0.52,VWS V14.01,2013-07-01 22:16:00,
2013-07-01 18:21:00,71.4,70.5,29.99,SSW,210,0.0,0.0,97,0.00,,OVC027,0.52,VWS V14.01,2013-07-01 22:21:00,
2013-07-01 18:27:00,71.4,70.5,29.99,SSW,210,0.0,0.0,97,0.00,,OVC027,0.52,VWS V14.01,2013-07-01 22:27:00,
2013-07-01 18:33:00,71.5,70.6,30.00,SSW,210,0.0,0.0,97,0.00,,OVC027,0.52,VWS V14.01,2013-07-01 22:33:00,
2013-07-01 18:38:00,71.5,70.6,30.00,SSW,210,0.0,0.0,97,0.00,,OVC027,0.52,VWS V14.01,2013-07-01 22:38:00,
2013-07-01 18:44:00,71.7,70.8,30.00,SSW,210,0.0,0.0,97,0.00,,OVC027,0.52,VWS V14.01,2013-07-01 22:44:00,
2013-07-01 18:49:00,71.7,71.1,30.00,SSW,210,0.0,0.0,98,0.00,,OVC027,0.52,VWS V14.01,2013-07-01 22:49:00,
2013-07-01 18:55:00,71.7,71.1,30.00,SSW,210,0.0,0.0,98,0.00,,OVC027,0.52,VWS V14.01,2013-07-01 22:55:00,
2013-07-01 19:00:00,71.9,71.3,30.00,SSW,210,0.0,0.0,98,0.00,,OVC150,0.52,VWS V14.01,2013-07-01 23:00:00,
2013-07-01 19:06:00,71.9,71.3,30.00,ENE,69,0.0,0.0,98,0.00,,OVC150,0.52,VWS V14.01,2013-07-01 23:06:00,
2013-07-01 19:12:00,71.9,71.3,30.01,ENE,69,0.0,0.0,98,0.00,,OVC150,0.52,VWS V14.01,2013-07-01 23:12:00,
2013-07-01 19:17:00,71.9,71.0,30.01,ENE,69,0.0,0.0,97,0.00,,OVC150,0.52,VWS V14.01,2013-07-01 23:17:00,
2013-07-01 19:23:00,71.7,70.8,30.01,ENE,74,0.0,0.0,97,0.00,,OVC150,0.52,VWS V14.01,2013-07-01 23:23:00,
2013-07-01 19:28:00,71.5,70.6,30.01,ENE,74,0.0,0.0,97,0.00,,OVC150,0.52,VWS V14.01,2013-07-01 23:28:00,
2013-07-01 19:34:00,71.5,70.6,30.01,ENE,74,0.0,0.0,97,0.00,,OVC150,0.52,VWS V14.01,2013-07-01 23:34:00,
2013-07-01 19:39:00,71.4,70.5,30.01,ESE,103,0.0,0.0,97,0.00,,OVC150,0.52,VWS V14.01,2013-07-01 23:39:00,
2013-07-01 19:45:00,71.4,70.5,30.01,ESE,103,0.0,0.0,97,0.00,,OVC150,0.52,VWS V14.01,2013-07-01 23:45:00,
2013-07-01 19:51:00,71.4,70.5,30.01,ESE,103,0.0,0.0,97,0.00,,OVC150,0.52,VWS V14.01,2013-07-01 23:51:00,
2013-07-01 19:57:00,71.2,70.3,30.01,ESE,103,0.0,0.0,97,0.00,,OVC150,0.52,VWS V14.01,2013-07-01 23:57:00,
2013-07-01 20:02:00,71.2,70.3,30.02,ESE,103,0.0,0.0,97,0.00,,BKN150,0.52,VWS V14.01,2013-07-02 00:02:00,
2013-07-01 20:07:00,71.2,70.0,30.02,ESE,103,0.0,0.0,96,0.00,,BKN150,0.52,VWS V14.01,2013-07-02 00:07:00,
2013-07-01 20:13:00,71.2,70.3,30.03,ESE,106,0.0,0.0,97,0.00,,BKN150,0.52,VWS V14.01,2013-07-02 00:13:00,
2013-07-01 20:18:00,71.2,70.3,30.02,ESE,106,0.0,0.0,97,0.00,,BKN150,0.52,VWS V14.01,2013-07-02 00:18:00,
2013-07-01 20:23:00,71.2,70.3,30.02,ESE,106,0.0,0.0,97,0.00,,BKN150,0.52,VWS V14.01,2013-07-02 00:23:00,
2013-07-01 20:28:00,71.0,70.1,30.02,ESE,106,0.0,0.0,97,0.00,,BKN150,0.52,VWS V14.01,2013-07-02 00:28:00,
2013-07-01 20:34:00,71.0,70.1,30.02,ESE,106,8.0,0.0,97,0.00,,BKN150,0.52,VWS V14.01,2013-07-02 00:34:00,
2013-07-01 20:39:00,71.0,70.1,30.03,ESE,106,1.0,0.0,97,0.00,,BKN150,0.52,VWS V14.01,2013-07-02 00:39:00,
2013-07-01 20:44:00,71.0,70.1,30.03,ESE,109,0.0,0.0,97,0.00,,BKN150,0.52,VWS V14.01,2013-07-02 00:44:00,
2013-07-01 20:50:00,71.0,70.1,30.03,ESE,120,2.0,0.0,97,0.00,,BKN150,0.52,VWS V14.01,2013-07-02 00:50:00,
2013-07-01 20:56:00,70.9,70.0,30.03,ESE,120,3.0,0.0,97,0.00,,BKN150,0.52,VWS V14.01,2013-07-02 00:56:00,
2013-07-01 21:01:00,70.9,70.0,30.03,ESE,120,0.0,0.0,97,0.00,,OVC029,0.52,VWS V14.01,2013-07-02 01:01:00,
2013-07-01 21:07:00,70.7,69.8,30.03,ESE,120,8.0,0.0,97,0.00,,OVC029,0.52,VWS V14.01,2013-07-02 01:07:00,
2013-07-01 21:12:00,70.5,69.6,30.03,SSW,209,11.0,0.0,97,0.00,,OVC029,0.52,VWS V14.01,2013-07-02 01:12:00,
2013-07-01 21:17:00,70.5,69.6,30.04,SSW,209,0.0,0.0,97,0.00,,OVC029,0.52,VWS V14.01,2013-07-02 01:17:00,
2013-07-01 21:23:00,70.5,69.6,30.04,WSW,257,6.0,0.0,97,0.00,,OVC029,0.52,VWS V14.01,2013-07-02 01:23:00,
2013-07-01 21:28:00,70.3,69.4,30.04,WSW,257,0.0,0.0,97,0.00,,OVC029,0.52,VWS V14.01,2013-07-02 01:28:00,
2013-07-01 21:34:00,70.3,69.4,30.04,WSW,257,0.0,0.0,97,0.00,,OVC029,0.52,VWS V14.01,2013-07-02 01:34:00,
2013-07-01 21:40:00,70.3,69.4,30.05,WSW,252,1.0,0.0,97,0.00,,OVC029,0.52,VWS V14.01,2013-07-02 01:40:00,
2013-07-01 21:45:00,70.3,69.4,30.04,WSW,255,0.0,0.0,97,0.00,,OVC029,0.52,VWS V14.01,2013-07-02 01:45:00,
2013-07-01 21:51:00,70.3,69.4,30.05,WSW,257,0.0,0.0,97,0.00,,OVC029,0.52,VWS V14.01,2013-07-02 01:51:00,
2013-07-01 21:57:00,70.3,69.4,30.05,WSW,257,0.0,0.0,97,0.00,,OVC029,0.52,VWS V14.01,2013-07-02 01:57:00,
2013-07-01 22:02:00,70.3,69.4,30.05,WSW,257,0.0,0.0,97,0.00,,BKN200,0.52,VWS V14.01,2013-07-02 02:02:00,
2013-07-01 22:07:00,70.3,69.4,30.05,WSW,257,3.0,0.0,97,0.00,,BKN200,0.52,VWS V14.01,2013-07-02 02:07:00,
2013-07-01 22:13:00,70.3,69.4,30.05,WSW,257,0.0,0.0,97,0.00,,BKN200,0.52,VWS V14.01,2013-07-02 02:13:00,
2013-07-01 22:18:00,70.3,69.4,30.05,WSW,257,0.0,0.0,97,0.00,,BKN200,0.52,VWS V14.01,2013-07-02 02:18:00,
2013-07-01 22:24:00,70.3,69.4,30.05,WSW,257,0.0,0.0,97,0.00,,BKN200,0.52,VWS V14.01,2013-07-02 02:24:00,
2013-07-01 22:29:00,70.3,69.4,30.05,WSW,257,4.0,0.0,97,0.00,,BKN200,0.52,VWS V14.01,2013-07-02 02:29:00,
2013-07-01 22:34:00,70.2,69.3,30.05,WSW,257,0.0,0.0,97,0.00,,BKN200,0.52,VWS V14.01,2013-07-02 02:34:00,
2013-07-01 22:39:00,70.2,69.3,30.05,WSW,257,0.0,0.0,97,0.00,,BKN200,0.52,VWS V14.01,2013-07-02 02:39:00,
2013-07-01 22:44:00,70.2,69.3,30.05,WSW,257,0.0,0.0,97,0.00,,BKN200,0.52,VWS V14.01,2013-07-02 02:44:00,
2013-07-01 22:50:00,70.2,69.3,30.05,WSW,257,0.0,0.0,97,0.00,,BKN200,0.52,VWS V14.01,2013-07-02 02:50:00,
2013-07-01 22:55:00,70.2,69.3,30.04,WSW,257,0.0,0.0,97,0.00,,BKN200,0.52,VWS V14.01,2013-07-02 02:55:00,
2013-07-01 23:01:00,70.2,69.3,30.05,WSW,257,0.0,0.0,97,0.00,,BKN200,0.52,VWS V14.01,2013-07-02 03:01:00,
2013-07-01 23:06:00,70.3,69.7,30.05,WSW,257,0.0,0.0,98,0.00,,BKN200,0.52,VWS V14.01,2013-07-02 03:06:00,
2013-07-01 23:11:00,70.3,69.4,30.05,WSW,257,0.0,0.0,97,0.00,,BKN200,0.52,VWS V14.01,2013-07-02 03:11:00,
2013-07-01 23:16:00,70.3,69.7,30.05,WSW,257,0.0,0.0,98,0.00,,BKN200,0.52,VWS V14.01,2013-07-02 03:16:00,
2013-07-01 23:22:00,70.3,69.7,30.05,WSW,257,0.0,0.0,98,0.00,,BKN200,0.52,VWS V14.01,2013-07-02 03:22:00,
2013-07-01 23:27:00,70.3,69.7,30.05,WSW,257,0.0,0.0,98,0.00,,BKN200,0.52,VWS V14.01,2013-07-02 03:27:00,
2013-07-01 23:33:00,70.3,69.7,30.05,WSW,257,0.0,0.0,98,0.00,,BKN200,0.52,VWS V14.01,2013-07-02 03:33:00,
2013-07-01 23:38:00,70.3,69.7,30.05,WSW,257,0.0,0.0,98,0.00,,BKN200,0.52,VWS V14.01,2013-07-02 03:38:00,
2013-07-01 23:43:00,70.3,69.7,30.05,WSW,257,0.0,0.0,98,0.00,,BKN200,0.52,VWS V14.01,2013-07-02 03:43:00,
2013-07-01 23:48:00,70.3,69.7,30.05,WSW,257,0.0,0.0,98,0.00,,BKN200,0.52,VWS V14.01,2013-07-02 03:48:00,
2013-07-01 23:53:00,70.3,69.7,30.05,WSW,257,0.0,0.0,98,0.00,,BKN200,0.52,VWS V14.01,2013-07-02 03:53:00,